Find Starlink 11555

NORAD ID: 62915 Int'l Des: 2025-027 Owner: SPXS Country: US Constellation: starlink operational
LEOCIRCULAR

現在のビュー

3D地球を読み込み中...

About Starlink 11555

Starlink 11555 (NORAD 62915) is a starlink constellation satellite (v2 mini d2c) launched Feb 8, 2025 by SPXS of US. It operates in LEO, CIRCULAR orbit with a mass of 960.00 kg.

Starlink 11555について

説明を読み込み中...

次回通過

Passes for default location (London). Set your location on the main map for personalized predictions.

高度履歴

Loading altitude history...

軌道要素

1 62915U 25027J 26170.83336490 .00252152 00000-0 18971-2 0 9996
2 62915 42.9992 92.2491 0002343 248.1558 111.9060 15.70995683 79256
Epoch: Jun 19, 2026 • Age: 5 hours

現在のステータス

高度 356.0 km
速度 7.70 km/s
衛星直下点 17.04°N, 168.38°W
打ち上げ日 Feb 8, 2025
運用期間 1.3 years
タイプ internet

技術仕様

分類 Payload
質量 960.00 kg
乾燥質量 910.00 kg
総質量 960.00 kg
長さ 0.30 m
直径 4.10 m
スパン 29.00 m
形状 Box + pan
製造者 SPXS
バスタイプ Starlink V2MD
フェーズステータス In Orbit
所有者/国 SPXS/US

Most Searched